Lewistown, MT

5:18 AM MDT on September 25, 2016 (GMT -0600)
Lewistown Municipal

Weather History for KLWT - June, 2013

Change the Weather History Date:

Thursday, June 20, 2013

  Actual Average Record
Temperature  
Mean Temperature 55 °F 59 °F  
Max Temperature 66 °F 72 °F 96 °F (1988)
Min Temperature 44 °F 46 °F 27 °F (1929)
Degree Days  
Heating Degree Days 10 7  
Month to date heating degree days 178 173  
Since 1 June heating degree days 178 173  
Since 1 July heating degree days 8027 8147  
Cooling Degree Days 0 1  
Month to date cooling degree days 4 6  
Year to date cooling degree days 7 8  
Since 1 June cooling degree days 4 6  
Growing Degree Days 5 (Base 50)    
Moisture  
Dew Point 37 °F    
Average Humidity 59    
Maximum Humidity 86    
Minimum Humidity 31    
Precipitation  
Precipitation 0.00 in 0.10 in 1.30 in (1903)
Month to date precipitation 4.26 2.21  
Year to date precipitation 13.89 8.47  
Snow  
Snow 0.00 in - - ()
Snow Depth 0.00 in    
Sea Level Pressure  
Sea Level Pressure 29.84 in    
Wind  
Wind Speed 14 mph (SW)    
Max Wind Speed 28 mph    
Max Gust Speed 33 mph    
Visibility 10 miles    
Events      
T = Trace of Precipitation, MM = Missing Value Source: NWS Daily Summary

Daily Weather History Graph

Daily Weather History Graph

Search for Another Location

Airport or City:

Trip Planner

Search our weather history database for the weather conditions in past years. The results will help you decide how hot, cold, wet, or windy it might be!

Date:

Astronomy

Jun. 20, 2013 Rise Set
Actual Time 5:22 AM MDT 9:16 PM MDT
Civil Twilight 4:42 AM MDT 9:56 PM MDT
Nautical Twilight 3:47 AM MDT 10:51 PM MDT
Astronomical Twilight 2:24 AM MDT 12:14 AM MDT
Moon 6:15 PM MDT (6/20) 3:00 AM MDT (6/20)
Length of Visible Light 17h 14m
Length of Day
15h 54m
Waxing Gibbous, 89% of the Moon is Illuminated
Jun 20
Waxing Gibbous
Jun 23
Full
Jun 29
Last Quarter
Jul 8
New
Jul 15
First Quarter

Hourly Weather History & Observations

Time (MDT) Temp. Dew Point Humidity Pressure Visibility Wind Dir Wind Speed Gust Speed Precip Events Conditions
12:54 AM 48.9 °F 45.0 °F 86% 29.68 in 10.0 mi WSW 10.4 mph - N/A   Clear
1:54 AM 46.9 °F 41.0 °F 80% 29.71 in 10.0 mi SW 11.5 mph - N/A   Clear
2:54 AM 46.9 °F 39.0 °F 74% 29.69 in 10.0 mi SW 13.8 mph - N/A   Clear
3:54 AM 48.0 °F 37.0 °F 66% 29.69 in 10.0 mi SW 16.1 mph - N/A   Clear
4:54 AM 48.0 °F 36.0 °F 63% 29.69 in 10.0 mi SSW 24.2 mph 31.1 mph N/A   Clear
5:54 AM 48.9 °F 36.0 °F 61% 29.70 in 10.0 mi SW 19.6 mph 27.6 mph N/A   Clear
6:54 AM 51.1 °F 36.0 °F 56% 29.74 in 10.0 mi SW 17.3 mph - N/A   Clear
7:54 AM 54.0 °F 37.0 °F 53% 29.79 in 10.0 mi SW 18.4 mph 24.2 mph N/A   Clear
8:54 AM 57.0 °F 37.0 °F 47% 29.82 in 10.0 mi SW 24.2 mph 32.2 mph N/A   Clear
9:54 AM 59.0 °F 36.0 °F 42% 29.83 in 10.0 mi WSW 24.2 mph 31.1 mph N/A   Clear
10:54 AM 61.0 °F 36.0 °F 39% 29.84 in 10.0 mi SW 20.7 mph 31.1 mph N/A   Clear
11:54 AM 64.0 °F 35.1 °F 34% 29.85 in 10.0 mi SW 18.4 mph 27.6 mph N/A   Clear
12:54 PM 62.1 °F 34.0 °F 35% 29.86 in 10.0 mi WSW 19.6 mph 25.3 mph N/A   Scattered Clouds
1:54 PM 63.0 °F 34.0 °F 34% 29.88 in 10.0 mi West 13.8 mph 23.0 mph N/A   Mostly Cloudy
2:54 PM 64.9 °F 36.0 °F 34% 29.90 in 10.0 mi West 23.0 mph 28.8 mph N/A   Scattered Clouds
3:54 PM 64.0 °F 35.1 °F 34% 29.91 in 10.0 mi West 19.6 mph 25.3 mph N/A   Partly Cloudy
4:54 PM 64.0 °F 34.0 °F 33% 29.91 in 10.0 mi West 12.7 mph 21.9 mph N/A   Clear
5:54 PM 63.0 °F 35.1 °F 35% 29.91 in 10.0 mi West 8.1 mph - N/A   Clear
6:54 PM 63.0 °F 35.1 °F 35% 29.91 in 10.0 mi Variable 3.5 mph - N/A   Clear
7:54 PM 61.0 °F 41.0 °F 48% 29.92 in 10.0 mi North 8.1 mph - N/A   Clear
8:54 PM 54.0 °F 41.0 °F 62% 29.94 in 10.0 mi NNE 9.2 mph - N/A   Clear
9:54 PM 52.0 °F 39.0 °F 61% 29.98 in 10.0 mi ESE 4.6 mph - N/A   Clear
10:54 PM 48.9 °F 41.0 °F 74% 30.00 in 10.0 mi South 5.8 mph - N/A   Clear
11:54 PM 46.9 °F 39.0 °F 74% 30.00 in 10.0 mi SSE 5.8 mph - N/A   Clear